Time,TemperatureF,DewpointF,PressureIn,WindDirection,WindDirectionDegrees,WindSpeedMPH,WindSpeedGustMPH,Humidity,HourlyPrecipIn,Conditions,Clouds,dailyrainin,SoftwareType,DateUTC
2013-06-25 00:07:00,67.3,66.0,29.98,East,101,0.0,0.0,95,0.00,,,0.01,weatherlink.com 1.10,2013-06-25 04:07:00,
2013-06-25 00:22:00,67.3,66.0,29.97,East,101,0.0,0.0,95,0.00,,,0.01,weatherlink.com 1.10,2013-06-25 04:22:00,
2013-06-25 00:37:00,67.2,66.0,29.97,East,101,0.0,0.0,95,0.00,,,0.01,weatherlink.com 1.10,2013-06-25 04:37:00,
2013-06-25 00:52:00,67.1,66.0,29.96,East,101,0.0,0.0,95,0.00,,,0.01,weatherlink.com 1.10,2013-06-25 04:52:00,
2013-06-25 01:07:00,66.8,65.0,29.96,East,101,0.0,0.0,95,0.00,,,0.01,weatherlink.com 1.10,2013-06-25 05:07:00,
2013-06-25 01:22:00,66.5,65.0,29.95,East,101,0.0,0.0,95,0.00,,,0.01,weatherlink.com 1.10,2013-06-25 05:22:00,
2013-06-25 01:37:00,66.2,65.0,29.95,East,101,0.0,0.0,95,0.00,,,0.01,weatherlink.com 1.10,2013-06-25 05:37:00,
2013-06-25 01:52:00,65.8,65.0,29.94,East,101,0.0,2.0,96,0.00,,,0.01,weatherlink.com 1.10,2013-06-25 05:52:00,
2013-06-25 02:07:00,65.7,65.0,29.94,East,101,0.0,2.0,96,0.00,,,0.01,weatherlink.com 1.10,2013-06-25 06:07:00,
2013-06-25 02:22:00,65.5,64.0,29.93,East,101,0.0,0.0,96,0.00,,,0.01,weatherlink.com 1.10,2013-06-25 06:22:00,
2013-06-25 02:37:00,65.4,64.0,29.93,East,101,0.0,2.0,96,0.00,,,0.01,weatherlink.com 1.10,2013-06-25 06:37:00,
2013-06-25 02:52:00,65.2,64.0,29.93,East,101,0.0,1.0,96,0.00,,,0.01,weatherlink.com 1.10,2013-06-25 06:52:00,
2013-06-25 03:07:00,65.0,64.0,29.93,East,101,0.0,0.0,96,0.00,,,0.01,weatherlink.com 1.10,2013-06-25 07:07:00,
2013-06-25 03:23:00,64.9,64.0,29.93,East,101,0.0,0.0,96,0.00,,,0.01,weatherlink.com 1.10,2013-06-25 07:23:00,
2013-06-25 03:38:00,65.0,64.0,29.93,East,101,0.0,0.0,97,0.00,,,0.01,weatherlink.com 1.10,2013-06-25 07:38:00,
2013-06-25 03:53:00,65.4,65.0,29.93,East,101,0.0,1.0,97,0.00,,,0.01,weatherlink.com 1.10,2013-06-25 07:53:00,
2013-06-25 04:08:00,65.5,65.0,29.92,East,101,0.0,1.0,97,0.00,,,0.01,weatherlink.com 1.10,2013-06-25 08:08:00,
2013-06-25 04:23:00,65.4,65.0,29.92,East,101,0.0,0.0,97,0.00,,,0.01,weatherlink.com 1.10,2013-06-25 08:23:00,
2013-06-25 04:38:00,65.4,65.0,29.92,East,101,0.0,0.0,97,0.00,,,0.01,weatherlink.com 1.10,2013-06-25 08:38:00,
2013-06-25 04:53:00,65.3,65.0,29.92,East,101,0.0,0.0,97,0.00,,,0.01,weatherlink.com 1.10,2013-06-25 08:53:00,
2013-06-25 05:08:00,65.0,64.0,29.92,East,101,0.0,0.0,97,0.01,,,0.02,weatherlink.com 1.10,2013-06-25 09:08:00,
2013-06-25 05:23:00,65.0,64.0,29.92,East,101,1.0,1.0,97,0.01,,,0.02,weatherlink.com 1.10,2013-06-25 09:23:00,
2013-06-25 05:38:00,65.0,64.0,29.92,East,101,0.0,1.0,97,0.01,,,0.02,weatherlink.com 1.10,2013-06-25 09:38:00,
2013-06-25 05:53:00,65.0,64.0,29.92,East,101,0.0,0.0,97,0.01,,,0.02,weatherlink.com 1.10,2013-06-25 09:53:00,
2013-06-25 06:08:00,65.1,65.0,29.92,East,101,0.0,0.0,98,0.00,,,0.02,weatherlink.com 1.10,2013-06-25 10:08:00,
2013-06-25 06:23:00,65.4,65.0,29.93,East,101,0.0,0.0,98,0.00,,,0.02,weatherlink.com 1.10,2013-06-25 10:23:00,
2013-06-25 06:38:00,65.8,65.0,29.93,North,11,0.0,2.0,98,0.00,,,0.00,weatherlink.com 1.10,2013-06-25 10:38:00,
2013-06-25 06:53:00,66.3,66.0,29.92,NW,306,0.0,2.0,98,0.00,,,0.00,weatherlink.com 1.10,2013-06-25 10:53:00,
2013-06-25 07:08:00,66.8,66.0,29.93,NNW,344,0.0,3.0,98,0.00,,,0.00,weatherlink.com 1.10,2013-06-25 11:08:00,
2013-06-25 07:23:00,67.4,67.0,29.93,NNW,344,0.0,2.0,98,0.00,,,0.00,weatherlink.com 1.10,2013-06-25 11:23:00,
2013-06-25 07:38:00,68.2,68.0,29.93,WNW,283,0.0,1.0,98,0.00,,,0.00,weatherlink.com 1.10,2013-06-25 11:38:00,
2013-06-25 07:53:00,69.0,69.0,29.93,WNW,288,0.0,2.0,98,0.00,,,0.00,weatherlink.com 1.10,2013-06-25 11:53:00,
2013-06-25 08:08:00,70.2,70.0,29.93,WNW,282,1.0,2.0,98,0.00,,,0.00,weatherlink.com 1.10,2013-06-25 12:08:00,
2013-06-25 08:23:00,71.4,71.0,29.93,WNW,300,3.0,4.0,97,0.00,,,0.00,weatherlink.com 1.10,2013-06-25 12:23:00,
2013-06-25 08:38:00,73.1,70.0,29.93,West,266,1.0,4.0,90,0.00,,,0.00,weatherlink.com 1.10,2013-06-25 12:38:00,
2013-06-25 08:53:00,74.6,71.0,29.93,WNW,295,1.0,3.0,87,0.00,,,0.00,weatherlink.com 1.10,2013-06-25 12:53:00,
2013-06-25 09:08:00,76.0,71.0,29.93,West,270,0.0,5.0,83,0.00,,,0.00,weatherlink.com 1.10,2013-06-25 13:08:00,
2013-06-25 09:23:00,77.2,71.0,29.92,WNW,303,0.0,3.0,81,0.00,,,0.00,weatherlink.com 1.10,2013-06-25 13:23:00,
2013-06-25 09:38:00,78.3,72.0,29.92,SSW,211,2.0,5.0,80,0.00,,,0.00,weatherlink.com 1.10,2013-06-25 13:38:00,
2013-06-25 09:53:00,79.2,72.0,29.92,SSW,208,3.0,5.0,79,0.00,,,0.00,weatherlink.com 1.10,2013-06-25 13:53:00,
2013-06-25 10:08:00,80.4,74.0,29.93,WSW,244,0.0,4.0,80,0.00,,,0.00,weatherlink.com 1.10,2013-06-25 14:08:00,
2013-06-25 10:23:00,80.9,73.0,29.93,West,268,0.0,5.0,76,0.00,,,0.00,weatherlink.com 1.10,2013-06-25 14:23:00,
2013-06-25 10:38:00,82.0,73.0,29.92,West,259,0.0,6.0,74,0.00,,,0.00,weatherlink.com 1.10,2013-06-25 14:38:00,
2013-06-25 10:54:00,83.6,73.0,29.92,NNW,333,3.0,4.0,70,0.00,,,0.00,weatherlink.com 1.10,2013-06-25 14:54:00,
2013-06-25 11:09:00,85.1,73.0,29.91,South,178,3.0,5.0,68,0.00,,,0.00,weatherlink.com 1.10,2013-06-25 15:09:00,
2013-06-25 11:24:00,85.6,73.0,29.92,West,265,2.0,6.0,67,0.00,,,0.00,weatherlink.com 1.10,2013-06-25 15:24:00,
2013-06-25 11:39:00,85.6,73.0,29.91,SW,219,3.0,8.0,67,0.00,,,0.00,weatherlink.com 1.10,2013-06-25 15:39:00,
2013-06-25 11:54:00,86.2,74.0,29.91,South,180,3.0,8.0,67,0.00,,,0.00,weatherlink.com 1.10,2013-06-25 15:54:00,
2013-06-25 12:09:00,86.5,74.0,29.90,SW,215,5.0,8.0,66,0.00,,,0.00,weatherlink.com 1.10,2013-06-25 16:09:00,
2013-06-25 12:24:00,87.4,75.0,29.89,SW,234,3.0,5.0,67,0.00,,,0.00,weatherlink.com 1.10,2013-06-25 16:24:00,
2013-06-25 12:39:00,88.9,73.0,29.88,SSW,192,14.0,14.0,60,0.00,,,0.00,weatherlink.com 1.10,2013-06-25 16:39:00,
2013-06-25 12:54:00,88.0,73.0,29.88,WSW,243,5.0,11.0,62,0.00,,,0.00,weatherlink.com 1.10,2013-06-25 16:54:00,
2013-06-25 13:09:00,88.3,73.0,29.87,WSW,257,9.0,9.0,60,0.00,,,0.00,weatherlink.com 1.10,2013-06-25 17:09:00,
2013-06-25 13:24:00,88.4,73.0,29.87,South,171,1.0,9.0,61,0.00,,,0.00,weatherlink.com 1.10,2013-06-25 17:24:00,
2013-06-25 13:39:00,87.5,72.0,29.86,SW,216,3.0,9.0,61,0.00,,,0.00,weatherlink.com 1.10,2013-06-25 17:39:00,
2013-06-25 13:54:00,86.2,72.0,29.86,SW,214,4.0,10.0,62,0.00,,,0.00,weatherlink.com 1.10,2013-06-25 17:54:00,
2013-06-25 14:09:00,83.6,73.0,29.86,NW,308,0.0,4.0,71,0.01,,,0.01,weatherlink.com 1.10,2013-06-25 18:09:00,
2013-06-25 14:24:00,83.6,74.0,29.85,SW,222,1.0,3.0,73,0.01,,,0.01,weatherlink.com 1.10,2013-06-25 18:24:00,
2013-06-25 14:39:00,86.7,74.0,29.84,WNW,298,1.0,4.0,67,0.01,,,0.01,weatherlink.com 1.10,2013-06-25 18:39:00,
2013-06-25 14:54:00,86.2,74.0,29.84,SW,223,0.0,8.0,68,0.01,,,0.01,weatherlink.com 1.10,2013-06-25 18:54:00,
2013-06-25 15:09:00,82.5,74.0,29.86,SSE,159,2.0,8.0,76,0.12,,,0.13,weatherlink.com 1.10,2013-06-25 19:09:00,
2013-06-25 15:24:00,77.2,72.0,29.86,SW,222,9.0,9.0,84,0.21,,,0.22,weatherlink.com 1.10,2013-06-25 19:24:00,
2013-06-25 15:39:00,76.5,73.0,29.85,WSW,246,2.0,8.0,88,0.21,,,0.22,weatherlink.com 1.10,2013-06-25 19:39:00,
2013-06-25 15:54:00,77.9,74.0,29.84,SW,227,0.0,5.0,87,0.21,,,0.22,weatherlink.com 1.10,2013-06-25 19:54:00,
2013-06-25 16:09:00,77.7,74.0,29.84,NNW,334,0.0,3.0,87,0.06,,,0.22,weatherlink.com 1.10,2013-06-25 20:09:00,
2013-06-25 16:24:00,78.3,74.0,29.83,NNW,333,0.0,1.0,87,0.00,,,0.22,weatherlink.com 1.10,2013-06-25 20:24:00,
2013-06-25 16:39:00,79.8,75.0,29.83,West,281,0.0,1.0,84,0.00,,,0.22,weatherlink.com 1.10,2013-06-25 20:39:00,
2013-06-25 16:54:00,80.4,75.0,29.82,SW,223,2.0,4.0,82,0.00,,,0.22,weatherlink.com 1.10,2013-06-25 20:54:00,
2013-06-25 17:09:00,81.6,76.0,29.81,WSW,241,0.0,3.0,84,0.00,,,0.22,weatherlink.com 1.10,2013-06-25 21:09:00,
2013-06-25 17:24:00,83.0,76.0,29.81,SW,225,0.0,8.0,79,0.00,,,0.22,weatherlink.com 1.10,2013-06-25 21:24:00,
2013-06-25 17:39:00,83.6,73.0,29.80,WSW,244,2.0,5.0,71,0.00,,,0.22,weatherlink.com 1.10,2013-06-25 21:39:00,
2013-06-25 17:54:00,82.9,73.0,29.79,West,271,1.0,10.0,71,0.00,,,0.22,weatherlink.com 1.10,2013-06-25 21:54:00,
2013-06-25 18:09:00,81.4,72.0,29.79,West,279,0.0,5.0,72,0.00,,,0.22,weatherlink.com 1.10,2013-06-25 22:09:00,
2013-06-25 18:24:00,81.5,71.0,29.78,SW,229,0.0,6.0,70,0.00,,,0.22,weatherlink.com 1.10,2013-06-25 22:24:00,
2013-06-25 18:39:00,81.3,71.0,29.79,WSW,239,0.0,7.0,70,0.00,,,0.22,weatherlink.com 1.10,2013-06-25 22:39:00,
2013-06-25 18:54:00,80.8,71.0,29.80,WSW,251,1.0,4.0,73,0.00,,,0.22,weatherlink.com 1.10,2013-06-25 22:54:00,
2013-06-25 19:09:00,80.5,71.0,29.80,West,265,0.0,5.0,73,0.00,,,0.22,weatherlink.com 1.10,2013-06-25 23:09:00,
2013-06-25 19:24:00,80.3,71.0,29.80,SW,232,0.0,6.0,73,0.00,,,0.22,weatherlink.com 1.10,2013-06-25 23:24:00,
2013-06-25 19:39:00,79.8,71.0,29.81,WNW,300,0.0,5.0,75,0.00,,,0.22,weatherlink.com 1.10,2013-06-25 23:39:00,
2013-06-25 19:54:00,79.4,70.0,29.82,West,279,0.0,2.0,74,0.00,,,0.22,weatherlink.com 1.10,2013-06-25 23:54:00,
2013-06-25 20:09:00,78.7,70.0,29.82,WSW,246,0.0,3.0,75,0.00,,,0.22,weatherlink.com 1.10,2013-06-26 00:09:00,
2013-06-25 20:24:00,78.1,70.0,29.81,SW,232,0.0,2.0,76,0.00,,,0.22,weatherlink.com 1.10,2013-06-26 00:24:00,
2013-06-25 20:39:00,77.4,70.0,29.81,West,276,1.0,2.0,78,0.00,,,0.22,weatherlink.com 1.10,2013-06-26 00:39:00,
2013-06-25 20:54:00,76.4,70.0,29.81,West,277,0.0,1.0,81,0.00,,,0.22,weatherlink.com 1.10,2013-06-26 00:54:00,
2013-06-25 21:09:00,75.2,70.0,29.81,SSW,202,0.0,1.0,83,0.00,,,0.22,weatherlink.com 1.10,2013-06-26 01:09:00,
2013-06-25 21:24:00,73.7,69.0,29.81,SE,139,0.0,1.0,86,0.00,,,0.22,weatherlink.com 1.10,2013-06-26 01:24:00,
2013-06-25 21:40:00,73.2,69.0,29.81,West,275,0.0,2.0,87,0.00,,,0.22,weatherlink.com 1.10,2013-06-26 01:40:00,
2013-06-25 21:55:00,73.3,69.0,29.82,WSW,252,0.0,2.0,86,0.00,,,0.22,weatherlink.com 1.10,2013-06-26 01:55:00,
2013-06-25 22:10:00,74.2,70.0,29.83,NNW,336,0.0,6.0,87,0.04,,,0.26,weatherlink.com 1.10,2013-06-26 02:10:00,
2013-06-25 22:25:00,73.7,70.0,29.84,SW,229,1.0,7.0,89,0.06,,,0.28,weatherlink.com 1.10,2013-06-26 02:25:00,
2013-06-25 22:40:00,73.1,70.0,29.84,West,259,0.0,2.0,90,0.08,,,0.30,weatherlink.com 1.10,2013-06-26 02:40:00,
2013-06-25 22:55:00,72.4,70.0,29.81,East,86,0.0,3.0,93,0.11,,,0.33,weatherlink.com 1.10,2013-06-26 02:55:00,
2013-06-25 23:10:00,71.7,70.0,29.79,ESE,118,0.0,2.0,94,0.07,,,0.33,weatherlink.com 1.10,2013-06-26 03:10:00,
2013-06-25 23:25:00,71.4,70.0,29.79,ESE,118,1.0,2.0,95,0.05,,,0.33,weatherlink.com 1.10,2013-06-26 03:25:00,
2013-06-25 23:40:00,71.3,70.0,29.79,ESE,118,0.0,0.0,95,0.04,,,0.34,weatherlink.com 1.10,2013-06-26 03:40:00,
2013-06-25 23:55:00,71.1,70.0,29.80,SSW,211,1.0,3.0,96,0.01,,,0.34,weatherlink.com 1.10,2013-06-26 03:55:00,